Location: Kapla
(46.2483°N, 15.0094°E)
Time: 18:02:38
(UTC+00:00)

Cosmos 1862 Rocket - Pass Details

Date: 03 March 2021
Orbit: 603 x 634 km, 82.5° (Epoch: 14 April)

Event Time Altitude Azimuth Distance (km) Brightness Sun altitude
Rises 17:22:02 0° 354° (N) 2,944 7.1 -6.5°
Reaches altitude 10° 17:24:20 10° 359° (N) 2,031 6.2 -6.9°
Maximum altitude 17:28:47 57° 78° (ENE) 749 3.7 -7.6°
Drops below altitude 10° 17:33:10 10° 158° (SSE) 2,008 6.0 -8.4°
Sets 17:35:25 0° 162° (SSE) 2,908 6.8 -8.8°
